Regional Weather Roundup
Issued by NWS

Home | Current Version | Previous Version | Graphics & Text | Print | Product List | Glossary On
Versions: 1 2 3 4 5 6 7 8 9 10 11 12 13 14 15 16 17 18 19 20 21 22 23 24 25 26 27 28 29 30 31 32 33 34 35 36 37 38 39 40 41 42 43 44 45 46 47 48 49 50
000
ASUS44 KMEG 290210
RWRTN
TENNESSEE HOURLY STATE WEATHER ROUNDUP
NATIONAL WEATHER SERVICE MEMPHIS TN
900 PM CDT THU MAY 28 2015

TNZ002-004-019-021-049-052-054-088>092-290300-
WEST TENNESSEE

CITY           SKY/WX    TMP DP  RH WIND       PRES   REMARKS
MEMPHIS INTL   PTCLDY    78  64  61 SE7       30.07R
NWS MEMPHIS      N/A     75 N/A N/A MISG        N/A
JACKSON        CLEAR     72  66  81 CALM      30.09S
DYERSBURG      CLEAR     73  55  53 SE5       30.09R
PARIS          PTCLDY    70  66  88 CALM      30.11R
LEXINGTON      CLEAR     72  68  88 CALM      30.11R
$$

TNZ008-025-027-028-033-062-065-066-290300-
NORTH MIDDLE TENNESSEE

CITY           SKY/WX    TMP DP  RH WIND       PRES   REMARKS
NASHVILLE      MOCLDY    76  67  73 CALM      30.13R
CLARKSVILLE    CLEAR     73  65  75 SE3       30.11R
SMYRNA         MOCLDY    76  69  79 CALM      30.13S
COOKEVILLE     MOCLDY    70  66  88 S6        30.18R
CROSSVILLE     CLOUDY    68  60  75 S3        30.24R
$$

TNZ061-075-076-078-094-096-097-290300-
SOUTH MIDDLE TENNESSEE

CITY           SKY/WX    TMP DP  RH WIND       PRES   REMARKS
FAYETTEVILLE   CLOUDY   N/A N/A N/A MISG      30.18S
TULLAHOMA      MOCLDY    68  64  88 S5        30.20R
WINCHESTER     CLOUDY    70  64  83 SE8       30.19R
MCMINNVILLE    MOCLDY    68  68 100 E5        30.20R
COLUMBIA       MOCLDY    72  70  94 SE6       30.12S
SHELBYVILLE    CLOUDY    73  64  73 S15       30.18R
$$

TNZ017-018-042-046-047-290300-
NORTHEAST TENNESSEE

CITY           SKY/WX    TMP DP  RH WIND       PRES   REMARKS
TRI CITIES     CLOUDY    68  65  90 CALM      30.24R
ELIZABETHTON   CLEAR     63  63 100 E7        30.25R
$$

TNZ012-013-036-069-073-074-290300-
CENTRAL EAST TENNESSEE

CITY           SKY/WX    TMP DP  RH WIND       PRES   REMARKS
KNOXVILLE      LGT RAIN  75  66  73 SW8       30.19R
OAK RIDGE      CLOUDY    74  63  68 W8        30.22R
GATLINBURG       N/A     72  66  83 E3        30.19R
MORRISTOWN     PTCLDY    73  64  73 E3        30.23R
$$

TNZ083-085-099-290300-
SOUTHEAST TENNESSEE

CITY           SKY/WX    TMP DP  RH WIND       PRES   REMARKS
CHATTANOOGA    CLOUDY    70  67  90 CALM      30.20S
$$

SKY/WX REPORTED AS FAIR MEANS FEW OR NO CLOUDS BELOW
12 THOUSAND FEET.




USA.gov is the U.S. government's official web portal to all federal, state and local government web resources and services.